Wind_Speed
14 16 11 13 10 6 6 6 3 9 13 11 10 9 11 11 11 9 8 8 8 9 10 11 10 10 10 10 10 10 11 13 12 12 11 11 11 11 11 9 9 10 10
15 16 15 9 8 7 2 6 6 5 10 10 11 10 9 11 12 9 9 11 9 11 8 8 9 8 9 12 11 11 9 10 9 9 9 11 10 10 10 9 8 8 9
13 13 14 14 9 9 6 6 10 11 9 10 11 11 7 7 8 9 10 9 8 8 9 7 6 8 7 7 8 7 9 8 9 10 9 8 8 8 7 7 7 6 6
12 13 14 13 12 12 8 3 3 2 3 3 5 7 7 9 9 9 8 6 8 7 5 5 5 5 5 4 6 7 7 7 6 6 6 6 6 6 7 7 7 8 7
14 14 13 12 10 10 9 9 9 8 6 4 3 1 3 3 1 1 1 2 4 4 3 4 5 5 7 7 6 6 5 4 4 5 6 6 7 7 7 7 7 7 7
14 15 15 15 13 10 8 8 9 9 10 11 7 4 2 0 2 1 1 2 3 3 3 4 4 3 4 4 5 5 4 5 5 5 6 6 7 7 7 6 6 6 7
12 13 13 13 13 13 12 10 8 7 8 8 6 5 4 3 2 2 2 2 2 3 4 4 4 4 5 5 5 6 6 6 7 7 6 4 5 6 6 7 8 9 10
8 9 10 11 11 11 11 11 9 8 6 5 3 2 2 2 2 2 3 4 4 5 6 6 7 7 8 8 9 8 7 7 6 6 6 6 8 9 9 11 12 12 11
5 6 7 7 7 7 8 8 7 7 6 5 3 2 2 2 3 4 5 6 7 7 8 8 8 8 6 5 6 6 6 7 8 9 7 9 12 12 13 14 13 13 12
7 6 7 7 8 7 7 6 6 6 5 4 3 3 4 5 5 5 5 5 5 4 5 5 6 6 6 7 7 7 8 9 10 11 12 13 15 16 16 16 15 15 15
7 7 8 8 8 9 9 8 8 7 6 6 5 5 6 6 7 7 8 8 8 8 8 8 9 9 10 11 11 11 12 13 15 15 16 16 17 18 19 18 18 18 18
5 7 8 8 9 10 10 9 9 9 9 8 8 8 8 7 8 9 9 9 10 10 11 12 13 14 14 15 15 16 16 16 17 18 19 19 19 19 19 20 21 20 21
5 6 7 8 9 10 11 10 10 11 11 10 10 10 11 9 9 10 11 12 13 13 14 15 16 16 17 18 19 20 20 20 21 22 22 21 21 21 21 22 23 24 26
7 7 8 10 11 12 13 13 12 12 12 12 12 13 14 12 11 12 12 14 15 17 18 19 20 20 20 20 22 22 23 23 23 22 22 21 22 22 23 25 26 27 29
7 9 9 10 11 12 14 15 16 16 14 14 12 14 15 16 15 16 16 17 17 19 20 21 22 22 22 21 23 24 24 24 24 23 24 24 25 26 27 28 30 31 32
7 9 9 11 13 13 14 14 15 17 18 17 17 16 16 17 19 20 20 20 21 20 20 20 21 21 21 22 23 25 25 26 26 26 27 27 28 29 30 30 31 33 34
8 8 11 12 13 14 15 15 18 16 18 19 19 20 21 20 21 21 22 21 21 22 22 21 21 23 23 23 23 25 26 27 28 29 29 29 30 31 31 31 33 34 35
10 11 12 15 16 15 16 16 19 19 18 20 20 21 22 24 24 24 25 25 25 25 25 25 24 24 26 27 26 27 28 29 31 32 32 33 34 34 34 34 35 35 35
13 14 14 16 17 17 17 19 20 23 20 20 21 21 23 24 25 27 27 27 29 29 29 28 27 28 29 30 31 32 32 33 34 35 36 36 37 37 37 37 38 38 37
17 16 17 17 18 19 19 21 21 23 24 23 22 24 24 24 26 26 29 30 31 31 32 31 31 32 33 34 36 38 39 38 38 38 37 38 39 40 40 40 40 40 40
18 19 18 18 19 21 20 21 23 24 24 26 26 25 26 27 27 27 28 31 32 33 33 33 35 36 36 36 37 39 41 42 41 41 41 41 41 42 42 42 42 42 42
22 22 21 21 22 23 22 23 23 24 25 26 27 29 31 31 30 28 28 31 33 34 34 35 36 38 38 37 38 42 44 43 44 44 43 43 44 44 44 45 45 45 45
25 27 25 25 25 25 25 26 25 26 26 27 28 29 33 35 35 33 32 34 36 37 37 37 38 39 41 41 43 44 45 44 45 46 44 45 45 46 47 47 48 47 47
27 29 31 30 29 27 29 30 29 28 29 29 30 30 32 35 37 38 36 36 37 38 39 40 42 43 43 46 47 47 46 45 44 43 45 47 47 48 49 49 49 49 50
32 33 34 34 32 32 34 34 33 34 33 31 31 32 33 36 38 39 39 39 40 42 43 44 46 48 48 49 49 50 49 46 44 46 47 48 49 50 50 50 51 51 52
38 38 38 39 38 37 38 38 37 38 37 34 31 31 34 37 40 41 42 43 43 43 43 44 46 49 51 52 50 51 50 49 48 49 50 49 49 49 49 51 53 52 52
Wind_Direction
69 71 74 199 202 176 139 139 160 205 201 200 196 208 224 228 236 242 255 269 274 273 276 278 285 283 288 292 300 307 315 314 314 317 317 318 317 317 316 321 324 321 325
76 83 83 113 159 155 162 200 199 224 191 197 206 208 228 235 237 242 262 279 276 280 274 293 297 296 296 297 295 298 308 306 312 306 310 311 317 319 320 324 322 320 327
83 82 91 82 89 97 127 174 199 195 192 202 213 227 247 238 251 264 277 294 291 297 294 291 295 299 299 304 304 295 292 302 301 305 310 315 317 318 320 328 322 322 319
83 87 80 82 81 76 77 91 145 128 198 245 271 277 254 262 261 276 280 277 290 291 286 296 306 310 307 306 299 296 301 307 307 315 319 326 318 315 320 316 312 309 313
70 76 81 86 81 83 81 80 87 98 109 113 110 145 186 190 157 227 275 283 278 275 286 279 283 284 279 279 285 284 289 296 313 317 311 306 312 313 309 306 303 307 310
69 68 72 77 83 89 82 70 63 62 69 73 66 55 61 34 348 309 292 274 296 299 296 297 296 296 293 307 293 284 283 293 289 291 294 304 306 298 292 293 298 297 293
61 64 66 68 71 74 77 79 73 61 55 53 59 69 64 60 72 48 356 341 327 312 308 315 300 303 301 292 282 286 295 292 296 292 289 304 292 271 280 286 291 283 284
47 53 55 55 58 59 63 69 69 69 71 64 47 44 27 8 2 351 318 308 305 299 299 295 299 298 296 296 294 294 296 297 290 282 288 286 272 277 290 291 293 290 288
28 29 35 36 44 48 54 54 55 51 50 52 42 16 9 291 273 272 277 283 289 288 286 290 292 292 297 306 303 298 295 290 287 288 287 283 287 294 292 293 291 288 287
26 22 20 10 11 15 14 23 27 17 16 4 339 325 307 303 308 309 305 305 301 298 306 304 304 301 299 292 286 287 289 286 284 288 290 288 291 289 285 287 288 283 281
4 1 359 1 356 357 357 351 345 342 339 334 325 305 288 294 295 294 295 294 289 285 283 287 289 289 289 291 292 292 289 287 286 287 286 282 284 286 288 287 281 278 276
20 2 355 350 342 339 338 337 334 330 320 316 310 309 298 293 286 283 281 281 279 278 281 287 291 292 295 293 292 287 287 287 285 283 279 280 281 281 280 282 284 285 286
13 7 347 345 334 328 327 326 323 318 318 310 306 302 295 295 294 291 290 289 289 287 286 288 288 290 293 295 295 295 295 295 293 289 287 289 290 292 290 291 289 291 293
4 1 348 343 331 325 321 318 312 309 307 305 304 302 296 291 290 291 294 294 292 289 288 288 287 289 288 292 294 296 298 299 298 296 296 296 295 294 292 291 290 291 292
8 1 359 351 345 336 322 317 312 309 301 296 293 290 294 293 287 287 288 290 292 293 293 291 291 290 290 290 292 295 296 296 295 295 293 292 292 292 294 296 298 298 298
347 355 356 357 353 349 343 334 322 311 305 298 290 284 281 282 287 288 289 291 293 293 294 295 296 295 293 294 294 294 294 294 296 295 294 293 294 295 296 297 299 299 298
318 332 330 334 337 338 344 348 337 328 313 301 293 285 281 279 281 283 285 288 291 292 292 294 295 298 299 298 298 296 296 295 295 294 294 293 293 294 296 299 300 300 299
301 310 316 319 321 325 328 333 332 327 320 310 300 291 285 281 280 282 283 286 287 288 290 292 293 295 297 299 299 298 298 297 295 295 296 296 295 297 297 298 297 297 296
293 302 306 309 312 316 324 322 324 322 316 307 304 299 291 287 283 282 281 282 283 284 285 288 289 291 293 295 296 296 295 295 294 294 294 295 294 293 294 294 296 296 296
294 298 302 304 305 312 318 321 327 327 313 310 298 295 293 288 285 282 281 279 278 280 283 286 287 285 286 290 291 293 292 292 293 293 292 291 290 291 291 292 293 294 295
288 295 297 298 299 307 310 315 321 326 327 317 298 290 286 284 281 278 278 279 280 281 282 283 284 286 288 289 289 291 293 292 289 289 287 288 289 290 291 290 291 293 295
289 290 292 295 296 300 303 307 315 319 319 317 307 287 285 282 282 281 279 277 278 278 279 283 285 288 288 288 288 289 290 291 289 285 286 288 288 289 290 290 291 292 293
283 284 291 294 295 295 297 300 306 310 313 311 302 296 287 290 286 282 279 278 279 280 282 283 284 285 286 288 288 291 292 291 289 287 287 288 288 289 289 289 290 291 293
276 282 287 290 293 290 293 296 298 304 308 303 300 293 288 288 287 285 284 283 281 281 281 281 283 284 284 286 289 291 289 287 286 285 286 286 286 288 288 288 289 289 288
273 278 282 286 287 286 290 292 295 298 302 307 299 294 288 286 286 286 284 280 280 279 281 283 283 284 286 286 288 289 288 286 290 289 286 285 285 286 286 286 286 287 287
276 277 277 279 281 284 286 288 291 293 296 300 299 299 294 287 285 283 281 280 280 281 282 282 283 284 284 286 286 286 289 287 286 288 288 286 285 285 285 284 284 286 288
Height
5864 5864 5864 5866 5870 5872 5872 5873 5875 5876 5877 5878 5880 5882 5883 5885 5886 5886 5886 5886 5886 5886 5886 5886 5886 5886 5886 5886 5885 5884 5883 5882 5881 5880 5880 5880 5879 5878 5878 5876 5876 5875 5873
5866 5865 5867 5869 5870 5871 5872 5873 5873 5874 5875 5877 5879 5881 5881 5882 5883 5884 5884 5885 5884 5884 5884 5884 5884 5884 5884 5884 5883 5883 5881 5881 5880 5880 5879 5879 5878 5878 5877 5875 5874 5873 5871
5867 5867 5867 5867 5870 5869 5870 5872 5873 5873 5874 5875 5878 5879 5879 5880 5881 5881 5882 5883 5882 5883 5882 5883 5882 5882 5882 5882 5882 5881 5880 5880 5879 5879 5878 5877 5876 5876 5875 5874 5872 5871 5869
5869 5869 5868 5869 5870 5871 5871 5872 5873 5872 5873 5874 5875 5876 5877 5879 5880 5880 5881 5881 5881 5881 5881 5880 5881 5881 5881 5881 5880 5880 5879 5878 5878 5877 5877 5876 5875 5874 5874 5872 5871 5870 5869
5870 5870 5871 5871 5871 5872 5873 5874 5873 5873 5874 5874 5875 5876 5876 5877 5878 5879 5880 5880 5880 5880 5880 5879 5879 5880 5880 5879 5878 5879 5877 5876 5876 5875 5876 5874 5875 5874 5872 5870 5870 5869 5868
5872 5871 5872 5873 5873 5873 5874 5874 5873 5874 5874 5874 5875 5875 5877 5877 5878 5879 5879 5879 5879 5879 5878 5878 5879 5878 5878 5878 5878 5877 5876 5875 5875 5874 5873 5872 5872 5872 5870 5869 5869 5867 5867
5873 5874 5874 5875 5875 5875 5875 5875 5875 5876 5875 5875 5876 5877 5877 5878 5878 5878 5878 5878 5878 5878 5878 5877 5878 5877 5877 5877 5876 5876 5874 5874 5873 5873 5872 5871 5870 5869 5868 5868 5866 5865 5865
5874 5874 5875 5875 5876 5876 5876 5876 5877 5876 5876 5876 5877 5877 5877 5878 5877 5877 5878 5878 5877 5877 5876 5876 5876 5876 5875 5875 5874 5874 5873 5872 5871 5871 5871 5870 5868 5867 5867 5866 5865 5864 5863
5875 5875 5876 5877 5877 5877 5877 5877 5877 5877 5877 5877 5878 5878 5877 5878 5877 5877 5876 5876 5876 5875 5875 5875 5874 5874 5874 5873 5873 5872 5872 5871 5870 5870 5869 5869 5867 5865 5865 5863 5862 5861 5860
5875 5876 5876 5877 5877 5878 5878 5878 5877 5878 5877 5878 5878 5877 5877 5877 5876 5875 5875 5875 5875 5875 5874 5874 5873 5873 5873 5872 5872 5871 5869 5868 5868 5867 5867 5866 5864 5862 5861 5860 5859 5858 5857
5876 5876 5876 5877 5877 5877 5877 5877 5877 5877 5877 5877 5877 5877 5877 5876 5875 5874 5874 5874 5874 5873 5873 5872 5872 5871 5871 5870 5869 5868 5867 5866 5865 5864 5863 5862 5861 5859 5857 5856 5855 5854 5853
5877 5876 5876 5876 5876 5876 5877 5877 5877 5876 5876 5876 5876 5875 5875 5875 5874 5874 5874 5873 5872 5872 5871 5871 5870 5869 5869 5867 5866 5865 5864 5863 5861 5861 5859 5858 5857 5855 5854 5853 5852 5851 5849
5876 5876 5876 5875 5876 5875 5875 5875 5875 5875 5874 5874 5874 5873 5873 5873 5873 5872 5872 5871 5870 5870 5869 5868 5867 5866 5866 5864 5863 5861 5860 5859 5858 5857 5855 5854 5852 5851 5851 5849 5848 5846 5845
5876 5876 5875 5875 5875 5874 5873 5873 5873 5873 5873 5872 5872 5871 5870 5870 5870 5870 5869 5868 5868 5867 5866 5865 5864 5863 5862 5861 5858 5857 5856 5855 5854 5853 5851 5850 5848 5847 5846 5845 5843 5841 5839
5876 5875 5874 5873 5873 5872 5871 5871 5870 5870 5870 5869 5870 5869 5868 5867 5867 5866 5866 5865 5864 5863 5862 5861 5860 5858 5857 5857 5854 5853 5852 5851 5849 5848 5846 5844 5843 5841 5840 5839 5837 5835 5833
5874 5873 5873 5873 5871 5870 5869 5868 5867 5866 5866 5866 5865 5865 5865 5864 5862 5862 5862 5861 5860 5859 5858 5856 5854 5853 5852 5851 5850 5848 5847 5846 5844 5842 5841 5839 5838 5836 5835 5833 5831 5829 5827
5873 5873 5872 5871 5870 5868 5867 5866 5864 5863 5861 5861 5861 5861 5860 5860 5858 5857 5857 5857 5856 5854 5852 5851 5850 5848 5847 5846 5845 5843 5842 5841 5839 5837 5835 5833 5832 5830 5829 5827 5825 5823 5821
5871 5870 5870 5868 5867 5866 5864 5863 5861 5859 5858 5855 5855 5855 5855 5854 5854 5852 5852 5851 5850 5849 5847 5846 5845 5843 5841 5840 5839 5837 5836 5834 5832 5830 5829 5826 5824 5823 5821 5820 5818 5815 5813
5867 5867 5866 5865 5863 5862 5861 5859 5858 5854 5853 5851 5849 5849 5847 5847 5847 5846 5845 5844 5843 5842 5841 5840 5839 5837 5835 5833 5831 5830 5829 5827 5826 5824 5821 5819 5818 5816 5813 5811 5809 5807 5805
5862 5862 5861 5860 5859 5857 5856 5854 5853 5850 5847 5846 5844 5841 5840 5840 5840 5839 5837 5836 5836 5835 5834 5833 5832 5830 5829 5828 5825 5823 5821 5820 5818 5817 5814 5811 5809 5807 5805 5802 5800 5798 5796
5858 5857 5856 5855 5854 5852 5851 5849 5847 5846 5843 5841 5837 5836 5834 5832 5833 5833 5832 5829 5829 5828 5827 5826 5824 5823 5822 5820 5818 5815 5812 5811 5810 5807 5804 5802 5800 5798 5795 5793 5791 5788 5786
5851 5851 5850 5850 5848 5846 5845 5844 5842 5840 5838 5835 5833 5830 5828 5827 5826 5826 5826 5823 5821 5820 5820 5818 5817 5815 5813 5812 5810 5806 5805 5804 5800 5796 5795 5793 5789 5787 5785 5782 5780 5777 5776
5845 5843 5844 5843 5842 5841 5839 5838 5836 5835 5833 5830 5826 5824 5822 5819 5819 5819 5819 5817 5815 5813 5812 5811 5808 5806 5804 5802 5800 5798 5794 5793 5789 5787 5785 5782 5779 5777 5775 5772 5769 5767 5765
5839 5837 5836 5836 5836 5834 5832 5831 5829 5828 5826 5823 5821 5817 5814 5812 5810 5809 5810 5810 5807 5805 5804 5802 5799 5796 5795 5793 5788 5787 5784 5782 5780 5778 5774 5771 5768 5766 5764 5761 5758 5756 5753
5831 5830 5828 5827 5827 5827 5825 5824 5822 5820 5818 5816 5814 5811 5809 5804 5802 5801 5799 5798 5797 5795 5794 5793 5789 5786 5783 5782 5779 5775 5773 5770 5768 5766 5763 5761 5757 5755 5753 5749 5747 5744 5740
5821 5820 5820 5819 5818 5817 5816 5815 5814 5812 5810 5808 5806 5804 5802 5799 5795 5792 5790 5788 5786 5785 5783 5781 5779 5776 5773 5769 5768 5766 5762 5759 5758 5754 5750 5748 5746 5743 5740 5737 5734 5730 5727